Regional Weather Roundup
Issued by NWS

Home | Current Version | Previous Version | Graphics & Text | Print | Product List | Glossary On
Versions: 1 2 3 4 5 6 7 8 9 10 11 12 13 14 15 16 17 18 19 20 21 22 23 24 25 26 27 28 29 30 31 32 33 34 35 36 37 38 39 40 41 42 43 44 45 46 47 48 49 50
000
ASUS43 KIND 161159
RWRIN

WEATHER ROUNDUP FOR INDIANA
NATIONAL WEATHER SERVICE INDIANAPOLIS IN
700 AM EST MON JAN 16 2017

NOTE: "FAIR" INDICATES FEW OR NO CLOUDS BELOW 12,000 FEET WITH NO
SIGNIFICANT WEATHER AND/OR OBSTRUCTIONS TO VISIBILITY.

* - STATION DOES NOT REPORT WEATHER SUCH AS PRECIPITATION OR FOG.

+ - STATION NOT QUALITY CONTROLLED BY THE NATIONAL WEATHER SERVICE.
    USE DATA WITH CAUTION...ESPECIALLY DEWPOINT AND RELATIVE
    HUMIDITY OBSERVATIONS.

INZ001>003-010>013-019-020-161300-
NORTHWEST INDIANA

CITY           SKY/WX    TMP DP  RH WIND       PRES   REMARKS
GARY /AIRPORT/ CLOUDY    34  28  80 CALM      30.27F
KNOX *+        CLOUDY    32  18  55 CALM      30.26S
MONTICELLO +   CLOUDY    33  31  90 E5        30.25F WCI  29
6HR MIN TEMP:  32; 6HR MAX TEMP:  33;


$$

LMZ046-743>745-161300-
SOUTHERN LAKE MICHIGAN

STATION/POSITION TIME  TEMP    WIND        PRES    WAVE
                       AIR SEA DIR/SP/G            HT
                 (UTC) (F)     (DEG/KT/KT) (MB)    (FT)
BURNS HARBOR     1102   34     150/  4/  7 1025.4
MICHIGAN CITY    1130   32      50/  2/  2   N/A

$$

INZ004-005-014>016-021>024-161300-
NORTH CENTRAL INDIANA

CITY           SKY/WX    TMP DP  RH WIND       PRES   REMARKS
ELKHART        CLOUDY    32  27  80 CALM      30.28
GOSHEN         CLOUDY    32  26  78 E5        30.28F HAZE    WCI  27
6HR MIN TEMP:  29; 6HR MAX TEMP:  32; 6HR PCP: TRACE;

PERU/GRISSOM   CLOUDY    32  32 100 E5        30.24S WCI  27
SOUTH BEND     CLOUDY    31  26  82 SE5       30.29S WCI  26
6HR MIN TEMP:  28; 6HR MAX TEMP:  31; 6HR PCP: TRACE;


$$

INZ006>009-017-018-025>027-161300-
NORTHEAST INDIANA

CITY           SKY/WX    TMP DP  RH WIND       PRES   REMARKS
ANGOLA *+      CLOUDY    28  28 100 CALM      30.29R
FORT WAYNE     CLOUDY    33  29  85 E6        30.29S FOG     WCI  28
6HR MIN TEMP:  30; 6HR MAX TEMP:  33;

KENDALLVILLE + CLOUDY    31  28  88 SE3       30.29R FOG

$$

INZ028-029-035-036-043>045-051>053-161300-
WEST CENTRAL INDIANA

CITY           SKY/WX    TMP DP  RH WIND       PRES   REMARKS
CRAWFORDSVL +  CLOUDY    33  33 100 E7        30.24S FOG     WCI  27
6HR MIN TEMP:  32; 6HR MAX TEMP:  33;

LAFAYETTE      CLOUDY    34  33  96 E6        30.25S FOG     WCI  29
6HR MIN TEMP:  32; 6HR MAX TEMP:  34;

TERRE HAUTE    CLOUDY    38  36  92 SE6       30.23F FOG
6HR MIN TEMP:  37; 6HR MAX TEMP:  38; 6HR PCP: TRACE;


$$

INZ030>032-037>040-046>048-054>057-064-065-161300-
CENTRAL INDIANA

CITY           SKY/WX    TMP DP  RH WIND       PRES   REMARKS
COLUMBUS       CLOUDY    37  37 100 SE5       30.27
INDIANAPOLIS   CLOUDY    36  35  96 E7        30.24S FOG
6HR MIN TEMP:  35; 6HR MAX TEMP:  36; 6HR PCP: TRACE;

-EAGLE CREEK   CLOUDY    37  35  92 E7        30.24S FOG
6HR MIN TEMP:  35; 6HR MAX TEMP:  37; 6HR PCP:  0.01;

KOKOMO +       CLOUDY    33  32  96 E9        30.26F FOG     WCI  25
6HR MIN TEMP:  32; 6HR MAX TEMP:  33;

MT COMFORT *+  CLOUDY    36  34  93 SE6       30.26R
SHELBYVILLE    CLOUDY    38  35  89 E7        30.25F FOG
6HR MIN TEMP:  36; 6HR MAX TEMP:  38; 6HR PCP:  0.01;


$$

INZ033-034-041-042-049-050-058-059-161300-
EAST CENTRAL INDIANA

CITY           SKY/WX    TMP DP  RH WIND       PRES   REMARKS
MUNCIE         CLOUDY    35  33  92 E3        30.27S FOG
6HR MIN TEMP:  33; 6HR MAX TEMP:  35;


$$

INZ060-061-067>069-081>083-085>088-161300-
SOUTHWEST INDIANA

CITY           SKY/WX    TMP DP  RH WIND       PRES   REMARKS
EVANSVILLE     CLOUDY    42  40  92 E5        30.23F
6HR MIN TEMP:  41; 6HR MAX TEMP:  42;

HUNTINGBURG *+ CLOUDY    41  39  93 E6        30.23F
6HR MIN TEMP:  39; 6HR MAX TEMP:  41;


$$

INZ062-063-066-070>080-084-089>092-161300-
SOUTH CENTRAL AND SOUTHEAST INDIANA

CITY           SKY/WX    TMP DP  RH WIND       PRES   REMARKS
BLOOMINGTON    CLOUDY    38  36  92 SE7       30.24R FOG
6HR MIN TEMP:  37; 6HR MAX TEMP:  38; 6HR PCP: TRACE;

MADISON *+     CLOUDY    39  37  93 E6        30.28S
SEYMOUR +      CLOUDY    41  39  93 E3        30.27R FOG

$$




USA.gov is the U.S. government's official web portal to all federal, state and local government web resources and services.